CZ-6A DEB

Satellite information

Favourite Embed

Satellite Type and Status

DEBRISIN ORBIT

Key statistics

Satellite CZ-6A DEB at a glance.

Uptime

278

Days in orbit

Revolutions

≈ 14.1

Per day

Orbit

LEO

Low Earth Orbit

Inclination

89.2

Latest

Satellite identification and parameters

Extended collection of information and parameters for CZ-6A DEB.

Object identification

Identified? True

Debris? True

Object name: CZ-6A DEB

International designator: 2024-140DX

Object number (NORAD): 60718

Object ID (CCSDS): 60718

Country: PEOPLES REPUBLIC OF CHINA (PRC)

Current information (Y/N): Y

RCS size: MEDIUM

Orbital parameters

Period: 102.436 minutes

Inclination: 89.1806 deg

SMA: 7252.058 km

Apoapsis: 954.304 km

Periapsis: 793.542 km

RAAN: 326.4483 deg

Eccentricy: 0.0110839

Argument of periapsis: 59.6479 deg

Mean anomaly: 301.5608 deg

Mean motion: 14.05758899 rev/day

Mean motion (dot): 0.00000516 rev/day2

B* drag term: 0.0002913 1/REarth

Two-line elements (TLE)

Creation date: May 11, 2025, 2:40 a.m.

Reference frame: TEME

Reference center: EARTH

Epoch: May 10, 2025, 2:46 p.m. UTC

TLE line 0: 0 CZ-6A DEB

TLE line 1: 1 60718U 24140DX 25130.61588962 .00000516 00000-0 29130-3 0 9999

TLE line 2: 2 60718 89.1806 326.4483 0110839 59.6479 301.5608 14.05758899 38075

Live tracking on map

Real-time ground track for satellite CZ-6A DEB.

In-orbit conjunctions

A list of the most updated potential collisions computed for object CZ-6A DEB.

Target Orbit TCA Probability of collision Miss distance Type
SL-16 DEB LEO 2025-01-31 01:02:39 0.0001085781 306.0 (m) DEBRIS
FENGYUN 1C DEB SSO 2025-01-28 08:10:05 0.0001150795 917.0 (m) DEBRIS
DMSP 5D-2 F13 DEB SSO 2024-11-18 10:32:47 0.0001413989 597.0 (m) DEBRIS
FENGYUN 1C DEB SSO 2024-10-24 05:23:03 0.0003414755 604.0 (m) DEBRIS
FENGYUN 1C DEB SSO 2024-10-07 04:32:17 0.0001041232 684.0 (m) DEBRIS

Associated space launch

18 Low Earth Orbit communication satellites with Ku, Q and V band payloads for the G60 constellation operated by Shanghai Spacecom Satellite Technology (SSST) with funding backed by the Shanghai local government. Initial constellation will consist of 1296 satellites by 2027 with long term plans to expand it to 12000 satellites.

CZ-6A DEB was lifted into orbit during the mission ‘Long March 6A | G60 Polar Group 01’, on board a Long March 6A space rocket.

The launch took place on Aug. 6, 2024, 6:42 a.m. from Launch Complex 9A.

For more information about the launch, click the button.

Launch to space Long March 6A | G60 Polar Group 01
Long March 6A | G60 Polar Group 01

Agency: N/A

Status: Launch Successful

Launch date: Aug. 6, 2024, 6:42 a.m. UTC

Rocket: Long March 6A

Launch pad: Launch Complex 9A

Location: Taiyuan Satellite Launch Center, People's Republic of China

...

Latest news about this satellite

News about space launch
Brightness of first Chinese broadband constellation satellites alarms astronomers

The first satellites of a Chinese broadband constellation are significantly brighter than those of Western systems, posing a new challenge for astronomers.

News about space launch
Chinese rocket stage breaks up into cloud of more than 700 pieces of space debris

HELSINKI — A Chinese Long March 6A rocket’s upper stage has fragmented into a cloud of over 700 pieces of space debris, adding to concerns about long-term orbital safety. China […]

News about space launch
China's Thousand Sails Megaconstellation Kicks Off with Dangerous Debris Field

China's Thousand Sails Megaconstellation Kicks Off with Dangerous Debris Field


Newsletter sign-up

Weekly statistics, charts and insights to help you stay on top of the space industry.